Location: Kelshall
(52.0000°N, 0.0500°W)
Time: 15:28:18
(UTC+00:00)

ATLAS CENTAUR R/B - Pass Details

Date: 18 September 2020
Orbit: 479 x 667 km, 64.7° (Epoch: 12 October)

Event Time Altitude Azimuth Distance (km) Brightness Sun altitude
Rises 19:26:25 0° 269° (W) 2,643 6.2 -12.8°
Reaches altitude 10° 19:29:06 10° 287° (WNW) 1,727 5.3 -13.2°
Maximum altitude 19:31:57 20° 335° (NNW) 1,217 3.7 -13.6°
Drops below altitude 10° 19:34:45 10° 23° (NNE) 1,684 3.8 -14.0°
Sets 19:37:20 0° 42° (NE) 2,554 4.5 -14.4°
